Rome, NY

8:02 AM EDT on August 18, 2017 (GMT -0400)
Griffiss

Weather History for KRME - November, 2011

Change the Weather History Date:

Tuesday, November 29, 2011

  Actual Average Record
Temperature  
Mean Temperature 56 °F -  
Max Temperature 62 °F 39 °F 62 °F (2011)
Min Temperature 50 °F 30 °F 7 °F (2013)
Degree Days  
Heating Degree Days 9    
Growing Degree Days 6 (Base 50)    
Moisture  
Dew Point 54 °F    
Average Humidity 89    
Maximum Humidity 100    
Minimum Humidity 75    
Precipitation  
Precipitation 0.62 in - - ()
Sea Level Pressure  
Sea Level Pressure 29.75 in    
Wind  
Wind Speed 8 mph (ESE)    
Max Wind Speed 14 mph    
Max Gust Speed 23 mph    
Visibility 6 miles    
Events Rain    
Averages and records for this station are not official NWS values.
T = Trace of Precipitation, MM = Missing Value Source: NWS Daily Summary

Daily Weather History Graph

Daily Weather History Graph

Search for Another Location

Airport or City:

Trip Planner

Search our weather history database for the weather conditions in past years. The results will help you decide how hot, cold, wet, or windy it might be!

Date:

Astronomy

Nov. 29, 2011 Rise Set
Actual Time 7:11 AM EST 4:28 PM EST
Civil Twilight 6:39 AM EST 4:59 PM EST
Nautical Twilight 6:04 AM EST 5:35 PM EST
Astronomical Twilight 5:30 AM EST 6:09 PM EST
Moon 10:53 AM EST (11/29) 9:22 PM EST (11/29)
Length of Visible Light 10h 20m
Length of Day
9h 16m
Waxing Crescent, 24% of the Moon is Illuminated
Nov 29
Waxing Crescent
Dec 2
First Quarter
Dec 10
Full
Dec 17
Last Quarter
Dec 24
New

Hourly Weather History & Observations

Time (EST) Temp. Dew Point Humidity Pressure Visibility Wind Dir Wind Speed Gust Speed Precip Events Conditions
12:53 AM 50.0 °F 48.0 °F 93% 30.01 in 8.0 mi SE 4.6 mph - N/A   Overcast
1:53 AM 52.0 °F 48.9 °F 89% 30.00 in 10.0 mi ESE 6.9 mph - N/A   Overcast
2:53 AM 53.1 °F 48.9 °F 86% 29.99 in 10.0 mi ESE 8.1 mph - N/A   Overcast
3:53 AM 52.0 °F 48.9 °F 89% 29.97 in 10.0 mi SE 5.8 mph - N/A   Overcast
4:53 AM 54.0 °F 48.9 °F 83% 29.97 in 10.0 mi SE 10.4 mph - N/A   Overcast
5:53 AM 54.0 °F 48.9 °F 83% 29.95 in 10.0 mi ESE 8.1 mph - N/A   Overcast
6:53 AM 55.0 °F 51.1 °F 86% 29.95 in 10.0 mi SE 9.2 mph - N/A   Overcast
7:53 AM 54.0 °F 51.1 °F 90% 29.94 in 7.0 mi SE 10.4 mph - N/A   Mostly Cloudy
8:53 AM 55.9 °F 52.0 °F 87% 29.94 in 9.0 mi SE 6.9 mph - N/A   Overcast
9:53 AM 57.0 °F 53.1 °F 87% 29.94 in 10.0 mi ESE 6.9 mph - N/A   Overcast
10:53 AM 57.9 °F 53.1 °F 84% 29.91 in 8.0 mi East 5.8 mph - N/A   Overcast
11:53 AM 60.1 °F 54.0 °F 80% 29.86 in 9.0 mi East 8.1 mph - N/A   Mostly Cloudy
12:53 PM 62.1 °F 54.0 °F 75% 29.81 in 10.0 mi East 9.2 mph - N/A   Scattered Clouds
1:53 PM 62.1 °F 55.0 °F 78% 29.78 in 10.0 mi ESE 10.4 mph - N/A   Mostly Cloudy
2:50 PM 60.8 °F 57.2 °F 88% 29.76 in 2.5 mi ESE 12.7 mph - 0.00 in Rain Light Rain
2:53 PM 61.0 °F 57.0 °F 87% 29.76 in 2.5 mi ESE 12.7 mph - 0.00 in Rain Light Rain
3:33 PM 60.8 °F 57.2 °F 88% 29.75 in 5.0 mi ESE 13.8 mph 23.0 mph 0.01 in Rain Light Rain
3:53 PM 59.0 °F 55.9 °F 90% 29.74 in 5.0 mi East 13.8 mph - 0.01 in Rain Light Rain
4:37 PM 59.0 °F 55.4 °F 88% 29.73 in 4.0 mi ESE 12.7 mph 19.6 mph 0.00 in Rain Light Rain
4:53 PM 59.0 °F 55.9 °F 90% 29.71 in 4.0 mi ESE 9.2 mph - 0.00 in Rain Light Rain
5:03 PM 59.0 °F 55.4 °F 88% 29.71 in 10.0 mi East 8.1 mph - 0.00 in   Overcast
5:53 PM 60.1 °F 55.0 °F 83% 29.69 in 10.0 mi ESE 12.7 mph - 0.00 in Rain Light Rain
6:53 PM 60.1 °F 55.0 °F 83% 29.66 in 9.0 mi ESE 10.4 mph - 0.00 in Rain Light Rain
7:20 PM 59.0 °F 57.2 °F 94% 29.65 in 2.5 mi ESE 13.8 mph 23.0 mph 0.07 in Rain Heavy Rain
7:40 PM 59.0 °F 55.4 °F 88% 29.63 in 6.0 mi ESE 10.4 mph - 0.12 in Rain Light Rain
7:53 PM 59.0 °F 57.0 °F 93% 29.64 in 6.0 mi ESE 6.9 mph - 0.13 in Rain Light Rain
8:12 PM 59.0 °F 57.2 °F 94% 29.63 in 2.5 mi ESE 12.7 mph 21.9 mph 0.05 in Rain Heavy Rain
8:22 PM 59.0 °F 57.2 °F 94% 29.62 in 3.0 mi ESE 11.5 mph - 0.07 in Rain Rain
8:41 PM 59.0 °F 57.2 °F 94% 29.62 in 2.0 mi ESE 6.9 mph - 0.13 in Rain Heavy Rain
8:48 PM 59.0 °F 57.2 °F 94% 29.62 in 1.8 mi Variable 5.8 mph - 0.16 in Rain Heavy Rain
8:53 PM 59.0 °F 57.0 °F 93% 29.61 in 1.2 mi SW 5.8 mph - 0.21 in Rain Heavy Rain
9:01 PM 57.2 °F 57.2 °F 100% 29.60 in 0.8 mi SW 5.8 mph - 0.10 in Rain Heavy Rain
9:05 PM 57.2 °F 57.2 °F 100% 29.60 in 1.0 mi SW 5.8 mph - 0.13 in Rain Heavy Rain
9:21 PM 59.0 °F 55.4 °F 88% 29.58 in 1.8 mi SSE 8.1 mph - 0.22 in Rain Rain
9:25 PM 57.2 °F 55.4 °F 94% 29.59 in 3.0 mi SE 5.8 mph - 0.22 in Rain Rain
9:53 PM 57.0 °F 55.9 °F 96% 29.57 in 6.0 mi ESE 6.9 mph - 0.24 in Rain Light Rain
10:53 PM 57.9 °F 55.0 °F 90% 29.54 in 6.0 mi ESE 5.8 mph - 0.02 in Rain Light Rain
11:53 PM 55.0 °F 52.0 °F 89% 29.49 in 10.0 mi SE 6.9 mph - 0.01 in   Overcast